When you browse on this site, cookies collect data to enhance your experience and personalize the content and advertising you see.
Visit our Privacy Policy to learn more. By continuing to use the site, you agree to this use of cookies and data.
EN

Hourly Weather Banja Luka

Today, 13 July, Monday

Time Temperature Precipitation Wind Pressure Humidity
00:00 +11°C° 0 mm 0 mps 719 mmHg 92%
01:00 +10°C° 0 mm 0 mps 719 mmHg 95%
02:00 +10°C° 0 mm 0 mps 718 mmHg 95%
03:00 +9°C° 0 mm 0 mps 718 mmHg 96%
04:00 +9°C° 0 mm 0 mps 718 mmHg 97%
05:00 +12°C° 0 mm 1 mps 718 mmHg 92%
06:00 +13°C° 0 mm 1 mps 719 mmHg 86%
07:00 +15°C° 0 mm 1 mps 719 mmHg 80%
08:00 +17°C° 0 mm 2 mps 719 mmHg 70%
09:00 +18°C° 0 mm 3 mps 719 mmHg 59%
10:00 +20°C° 0 mm 4 mps 719 mmHg 49%
11:00 +20°C° 0 mm 4 mps 719 mmHg 48%
12:00 +21°C° 0 mm 4 mps 718 mmHg 47%
13:00 +22°C° 0 mm 4 mps 718 mmHg 46%
14:00 +21°C° 0 mm 4 mps 718 mmHg 48%
15:00 +21°C° 0 mm 4 mps 717 mmHg 50%
16:00 +21°C° 0 mm 4 mps 717 mmHg 52%
17:00 +19°C° 0 mm 4 mps 717 mmHg 59%
18:00 +18°C° 0 mm 3 mps 716 mmHg 67%
19:00 +16°C° 0 mm 2 mps 716 mmHg 75%
20:00 +15°C° 0 mm 2 mps 716 mmHg 79%
21:00 +13°C° 0 mm 1 mps 716 mmHg 83%
22:00 +12°C° 0 mm 1 mps 716 mmHg 87%
23:00 +11°C° 0 mm 1 mps 716 mmHg 87%

Tomorrow, 14 July, Tuesday

Time Temperature Precipitation Wind Pressure Humidity
00:00 +11°C° 0 mm 1 mps 716 mmHg 86%
01:00 +11°C° 0 mm 1 mps 716 mmHg 86%
02:00 +10°C° 0 mm 1 mps 715 mmHg 88%
03:00 +10°C° 0 mm 1 mps 715 mmHg 89%
04:00 +10°C° 0 mm 1 mps 715 mmHg 90%
05:00 +12°C° 0 mm 1 mps 715 mmHg 82%
06:00 +14°C° 0 mm 1 mps 715 mmHg 74%
07:00 +16°C° 0 mm 1 mps 716 mmHg 67%
08:00 +17°C° 0 mm 2 mps 716 mmHg 60%
09:00 +19°C° 0 mm 2 mps 716 mmHg 54%
10:00 +21°C° 0 mm 3 mps 716 mmHg 48%
11:00 +21°C° 0 mm 3 mps 716 mmHg 47%
12:00 +22°C° 0 mm 3 mps 716 mmHg 46%
13:00 +24°C° 0 mm 3 mps 715 mmHg 45%
14:00 +22°C° 0 mm 3 mps 715 mmHg 47%
15:00 +22°C° 0 mm 3 mps 715 mmHg 49%
16:00 +22°C° 0 mm 3 mps 714 mmHg 51%
17:00 +20°C° 0 mm 2 mps 714 mmHg 61%
18:00 +20°C° 0 mm 1 mps 714 mmHg 71%
19:00 +18°C° 0 mm 1 mps 714 mmHg 81%
20:00 +16°C° 0 mm 1 mps 714 mmHg 85%
21:00 +14°C° 0 mm 1 mps 714 mmHg 88%
22:00 +13°C° 0 mm 1 mps 714 mmHg 92%
23:00 +13°C° 0 mm 1 mps 714 mmHg 92%

Day after tomorrow, 15 July, Wednesday

Time Temperature Precipitation Wind Pressure Humidity
00:00 +13°C° 0 mm 1 mps 714 mmHg 92%
01:00 +12°C° 0 mm 1 mps 714 mmHg 93%
02:00 +12°C° 0 mm 1 mps 714 mmHg 92%
03:00 +12°C° 0 mm 1 mps 713 mmHg 92%
04:00 +12°C° 0 mm 1 mps 713 mmHg 92%
05:00 +14°C° 0 mm 1 mps 714 mmHg 84%
06:00 +15°C° 0 mm 0 mps 714 mmHg 76%
07:00 +17°C° 0 mm 0 mps 714 mmHg 69%
08:00 +20°C° 0 mm 0 mps 715 mmHg 61%
09:00 +24°C° 0 mm 1 mps 715 mmHg 53%
10:00 +26°C° 0 mm 1 mps 715 mmHg 44%
11:00 +26°C° 0 mm 1 mps 715 mmHg 43%
12:00 +27°C° 0 mm 2 mps 715 mmHg 41%
13:00 +27°C° 0 mm 3 mps 715 mmHg 39%
14:00 +27°C° 0 mm 3 mps 715 mmHg 42%
15:00 +26°C° 0 mm 2 mps 714 mmHg 44%
16:00 +26°C° 0 mm 2 mps 714 mmHg 47%
17:00 +24°C° 0 mm 2 mps 714 mmHg 57%
18:00 +22°C° 0 mm 1 mps 714 mmHg 66%
19:00 +21°C° 0 mm 1 mps 714 mmHg 76%
20:00 +19°C° 0 mm 1 mps 714 mmHg 78%
21:00 +18°C° 0 mm 1 mps 714 mmHg 80%
22:00 +16°C° 0 mm 2 mps 714 mmHg 83%
23:00 +16°C° 0 mm 2 mps 714 mmHg 83%

16 July, Thursday

Time Temperature Precipitation Wind Pressure Humidity
00:00 +16°C° 0 mm 2 mps 714 mmHg 83%
01:00 +16°C° 0 mm 1 mps 714 mmHg 83%
02:00 +16°C° 0 mm 1 mps 714 mmHg 83%
03:00 +15°C° 0 mm 1 mps 713 mmHg 83%
04:00 +15°C° 0 mm 1 mps 713 mmHg 83%
05:00 +18°C° 0 mm 1 mps 714 mmHg 80%
06:00 +17°C° 0 mm 0 mps 714 mmHg 77%
07:00 +18°C° 0 mm 0 mps 714 mmHg 73%
08:00 +19°C° 0.3 mm 0 mps 714 mmHg 73%
09:00 +20°C° 0.3 mm 0 mps 714 mmHg 72%
10:00 +23°C° 0.3 mm 1 mps 714 mmHg 72%
11:00 +23°C° 0.7 mm 1 mps 714 mmHg 73%
12:00 +24°C° 0.7 mm 1 mps 714 mmHg 75%
13:00 +24°C° 0.7 mm 1 mps 714 mmHg 76%
14:00 +24°C° 1.1 mm 1 mps 714 mmHg 79%
15:00 +23°C° 1.1 mm 1 mps 713 mmHg 82%
16:00 +23°C° 1.1 mm 1 mps 713 mmHg 86%
17:00 +22°C° 0.9 mm 1 mps 713 mmHg 88%
18:00 +20°C° 0.9 mm 1 mps 713 mmHg 91%
19:00 +19°C° 0.9 mm 1 mps 713 mmHg 93%
20:00 +18°C° 0.5 mm 1 mps 713 mmHg 95%
21:00 +16°C° 0.5 mm 2 mps 714 mmHg 97%
22:00 +15°C° 0.5 mm 2 mps 714 mmHg 98%
23:00 +15°C° 0.5 mm 2 mps 714 mmHg 98%

17 July, Friday

Time Temperature Precipitation Wind Pressure Humidity
00:00 +14°C° 0.5 mm 2 mps 714 mmHg 99%
01:00 +13°C° 0.5 mm 2 mps 714 mmHg 99%
02:00 +13°C° 0 mm 1 mps 714 mmHg 99%
03:00 +13°C° 0 mm 1 mps 713 mmHg 98%
04:00 +13°C° 0 mm 1 mps 713 mmHg 98%
05:00 +13°C° 0 mm 1 mps 713 mmHg 98%
06:00 +14°C° 0 mm 1 mps 714 mmHg 97%
07:00 +14°C° 0 mm 1 mps 714 mmHg 96%
08:00 +14°C° 0.1 mm 1 mps 714 mmHg 96%
09:00 +14°C° 0.1 mm 1 mps 714 mmHg 96%
10:00 +15°C° 0.1 mm 1 mps 714 mmHg 95%
11:00 +15°C° 0.2 mm 1 mps 714 mmHg 95%
12:00 +15°C° 0.2 mm 1 mps 714 mmHg 95%
13:00 +15°C° 0.2 mm 1 mps 713 mmHg 95%
14:00 +15°C° 0.1 mm 1 mps 713 mmHg 94%
15:00 +15°C° 0.1 mm 1 mps 713 mmHg 93%
16:00 +14°C° 0.1 mm 0 mps 713 mmHg 92%
17:00 +14°C° 0.4 mm 0 mps 713 mmHg 93%
18:00 +15°C° 0.4 mm 1 mps 713 mmHg 94%
19:00 +14°C° 0.4 mm 1 mps 713 mmHg 96%
20:00 +14°C° 0.2 mm 1 mps 713 mmHg 96%
21:00 +14°C° 0.2 mm 1 mps 713 mmHg 95%
22:00 +14°C° 0.2 mm 1 mps 713 mmHg 95%
23:00 +13°C° 0.8 mm 1 mps 713 mmHg 95%

18 July, Saturday

Time Temperature Precipitation Wind Pressure Humidity
00:00 +12°C° 0.8 mm 0 mps 713 mmHg 96%
01:00 +12°C° 0.8 mm 0 mps 713 mmHg 96%
02:00 +12°C° 0.7 mm 0 mps 713 mmHg 96%
03:00 +13°C° 0.7 mm 1 mps 713 mmHg 97%
04:00 +14°C° 0.7 mm 1 mps 712 mmHg 97%
05:00 +14°C° 1.1 mm 1 mps 712 mmHg 97%
06:00 +14°C° 1.1 mm 1 mps 712 mmHg 98%
07:00 +14°C° 1.1 mm 1 mps 712 mmHg 98%
08:00 +14°C° 0.5 mm 1 mps 712 mmHg 98%
09:00 +14°C° 0.5 mm 1 mps 712 mmHg 98%
10:00 +14°C° 0.5 mm 1 mps 712 mmHg 99%
11:00 +14°C° 1.7 mm 1 mps 712 mmHg 99%
12:00 +14°C° 1.7 mm 1 mps 712 mmHg 99%
13:00 +14°C° 1.7 mm 1 mps 712 mmHg 98%
14:00 +14°C° 1.5 mm 1 mps 712 mmHg 99%
15:00 +15°C° 1.5 mm 1 mps 711 mmHg 99%
16:00 +15°C° 1.5 mm 1 mps 711 mmHg 99%
17:00 +15°C° 0.1 mm 1 mps 711 mmHg 99%
18:00 +15°C° 0.1 mm 1 mps 711 mmHg 99%
19:00 +15°C° 0.1 mm 1 mps 711 mmHg 99%
20:00 +15°C° 0.1 mm 1 mps 711 mmHg 99%
21:00 +15°C° 0.1 mm 1 mps 711 mmHg 99%
22:00 +15°C° 0.1 mm 1 mps 711 mmHg 99%
23:00 +15°C° 0.6 mm 1 mps 711 mmHg 99%
Show more